| time (UTC) | temp F | wind direction | speed knots | gust knots | rain 1hr in | rain 24hr in | rain mn in | humidity % | barometer mb |
| 20260906120725 | 70 | 145 | 0.0 | 0.0 | 0.00 | 0.00 | 0.00 | 92 | 1041.4 |
| 20260906120222 | 70 | 144 | 0.0 | 0.0 | 0.00 | 0.00 | 0.00 | 92 | 1041.6 |
| 20260906115717 | 69 | 145 | 0.0 | 0.0 | 0.00 | 0.00 | 0.00 | 92 | 1041.2 |
| 20260906115212 | 69 | 146 | 0.0 | 0.0 | 0.00 | 0.00 | 0.00 | 92 | 1041.4 |
| 20260906114711 | 69 | 147 | 0.0 | 0.0 | 0.00 | 0.00 | 0.00 | 92 | 1041.1 |
| 20260906114206 | 69 | 159 | 0.0 | 0.0 | 0.00 | 0.00 | 0.00 | 92 | 1041.1 |
| 20260906113702 | 69 | 150 | 0.0 | 0.0 | 0.00 | 0.00 | 0.00 | 92 | 1041.1 |
| 20260906113201 | 69 | 164 | 0.0 | 0.9 | 0.00 | 0.00 | 0.00 | 92 | 1041.1 |
| 20260906112700 | 69 | 164 | 0.0 | 0.0 | 0.00 | 0.00 | 0.00 | 92 | 1041.2 |
| 20260906112158 | 69 | 164 | 0.0 | 0.0 | 0.00 | 0.00 | 0.00 | 92 | 1041.2 |
| 20260906111657 | 69 | 155 | 0.0 | 0.0 | 0.00 | 0.00 | 0.00 | 92 | 1041.3 |
| 20260906111152 | 69 | 150 | 0.0 | 0.0 | 0.00 | 0.00 | 0.00 | 92 | 1041.2 |
| 20260906110647 | 69 | 150 | 0.0 | 0.0 | 0.00 | 0.00 | 0.00 | 92 | 1041.2 |
| 20260906110142 | 69 | 149 | 0.0 | 0.0 | 0.00 | 0.00 | 0.00 | 92 | 1041.1 |
| 20260906105636 | 69 | 149 | 0.0 | 0.0 | 0.00 | 0.00 | 0.00 | 92 | 1041.1 |
| 20260906105132 | 69 | 148 | 0.0 | 0.0 | 0.00 | 0.00 | 0.00 | 92 | 1040.9 |
| 20260906104632 | 69 | 150 | 0.0 | 0.0 | 0.00 | 0.00 | 0.00 | 92 | 1041.1 |
| 20260906104131 | 69 | 147 | 0.0 | 0.0 | 0.00 | 0.00 | 0.00 | 92 | 1041.2 |
| 20260906103629 | 69 | 151 | 0.0 | 0.0 | 0.00 | 0.00 | 0.00 | 92 | 1040.9 |
| 20260906103125 | 69 | 151 | 0.0 | 0.0 | 0.00 | 0.00 | 0.00 | 92 | 1040.8 |
| 20260906102620 | 69 | 148 | 0.0 | 0.0 | 0.00 | 0.00 | 0.00 | 92 | 1040.8 |
| 20260906102115 | 69 | 150 | 0.0 | 0.0 | 0.00 | 0.00 | 0.00 | 92 | 1040.9 |
| 20260906101614 | 69 | 149 | 0.0 | 0.0 | 0.00 | 0.00 | 0.00 | 92 | 1040.8 |
| 20260906101109 | 69 | 144 | 0.0 | 0.0 | 0.00 | 0.00 | 0.00 | 92 | 1040.8 |
| 20260906100604 | 69 | 150 | 0.0 | 0.0 | 0.00 | 0.00 | 0.00 | 92 | 1040.7 |
| 20260906100105 | 69 | 144 | 0.0 | 0.0 | 0.00 | 0.00 | 0.00 | 92 | 1040.7 |
| 20260906095604 | 69 | 157 | 0.0 | 0.0 | 0.00 | 0.00 | 0.00 | 92 | 1040.6 |
| 20260906095100 | 69 | 155 | 0.0 | 0.0 | 0.00 | 0.00 | 0.00 | 92 | 1040.7 |
| 20260906094559 | 69 | 156 | 0.0 | 0.0 | 0.00 | 0.00 | 0.00 | 92 | 1040.8 |
| 20260906094055 | 69 | 151 | 0.0 | 0.0 | 0.00 | 0.00 | 0.00 | 92 | 1041.0 |
| 20260906093550 | 69 | 154 | 0.0 | 0.0 | 0.00 | 0.00 | 0.00 | 92 | 1041.0 |
| 20260906093045 | 69 | 144 | 0.0 | 0.0 | 0.00 | 0.00 | 0.00 | 92 | 1041.0 |
| 20260906092540 | 69 | 144 | 0.0 | 0.0 | 0.00 | 0.00 | 0.00 | 92 | 1041.0 |
| 20260906092035 | 69 | 143 | 0.0 | 0.0 | 0.00 | 0.00 | 0.00 | 92 | 1040.8 |
| 20260906091530 | 69 | 149 | 0.0 | 0.0 | 0.00 | 0.00 | 0.00 | 92 | 1040.8 |
| 20260906091027 | 69 | 148 | 0.0 | 0.0 | 0.00 | 0.00 | 0.00 | 92 | 1040.9 |
| 20260906090522 | 69 | 151 | 0.0 | 0.0 | 0.00 | 0.00 | 0.00 | 92 | 1040.6 |
| 20260906090017 | 69 | 147 | 0.0 | 0.0 | 0.00 | 0.00 | 0.00 | 92 | 1040.6 |
| 20260906085515 | 69 | 145 | 0.0 | 0.0 | 0.00 | 0.00 | 0.00 | 92 | 1040.6 |
| 20260906085015 | 69 | 148 | 0.0 | 0.0 | 0.00 | 0.00 | 0.00 | 92 | 1040.8 |
| 20260906084510 | 69 | 144 | 0.0 | 0.0 | 0.00 | 0.00 | 0.00 | 92 | 1040.7 |
| 20260906084009 | 70 | 173 | 0.0 | 0.0 | 0.00 | 0.00 | 0.00 | 92 | 1040.7 |
| 20260906083505 | 70 | 154 | 0.0 | 0.0 | 0.00 | 0.00 | 0.00 | 92 | 1040.6 |
| 20260906083004 | 70 | 163 | 0.0 | 0.0 | 0.00 | 0.00 | 0.00 | 92 | 1040.8 |
| 20260906082459 | 69 | 163 | 0.0 | 0.0 | 0.00 | 0.00 | 0.00 | 92 | 1040.7 |
| 20260906081955 | 69 | 152 | 0.0 | 0.0 | 0.00 | 0.00 | 0.00 | 92 | 1040.8 |
| 20260906081450 | 69 | 159 | 0.0 | 0.0 | 0.00 | 0.00 | 0.00 | 92 | 1040.9 |
| 20260906080946 | 69 | 155 | 0.0 | 0.0 | 0.00 | 0.00 | 0.00 | 92 | 1040.7 |
| 20260906080442 | 69 | 152 | 0.0 | 0.0 | 0.00 | 0.00 | 0.00 | 92 | 1040.7 |
| 20260906075937 | 69 | 154 | 0.0 | 0.0 | 0.00 | 0.00 | 0.00 | 92 | 1040.5 |
| 20260906075432 | 69 | 151 | 0.0 | 0.0 | 0.00 | 0.00 | 0.00 | 92 | 1040.5 |
| 20260906074927 | 69 | 152 | 0.0 | 0.0 | 0.00 | 0.00 | 0.00 | 92 | 1040.6 |
| 20260906074427 | 69 | 154 | 0.0 | 0.0 | 0.00 | 0.00 | 0.00 | 92 | 1040.6 |
| 20260906073925 | 69 | 175 | 0.9 | 0.9 | 0.00 | 0.00 | 0.00 | 92 | 1040.6 |
| 20260906073420 | 70 | 165 | 0.0 | 0.0 | 0.00 | 0.00 | 0.00 | 92 | 1040.6 |
| 20260906072917 | 70 | 151 | 0.0 | 0.0 | 0.00 | 0.00 | 0.00 | 92 | 1040.4 |
| 20260906072412 | 70 | 149 | 0.0 | 0.0 | 0.00 | 0.00 | 0.00 | 92 | 1040.4 |
| 20260906071908 | 70 | 148 | 0.0 | 0.0 | 0.00 | 0.00 | 0.00 | 92 | 1040.7 |
| 20260906071404 | 69 | 149 | 0.0 | 0.0 | 0.00 | 0.00 | 0.00 | 92 | 1040.4 |
| 20260906070859 | 70 | 144 | 0.0 | 0.0 | 0.00 | 0.00 | 0.00 | 92 | 1040.6 |
| 20260906070355 | 69 | 150 | 0.0 | 0.0 | 0.00 | 0.00 | 0.00 | 92 | 1040.6 |
| 20260906065850 | 69 | 147 | 0.0 | 0.0 | 0.00 | 0.00 | 0.00 | 92 | 1040.5 |
| 20260906065344 | 70 | 147 | 0.0 | 0.0 | 0.00 | 0.00 | 0.00 | 92 | 1040.5 |
| 20260906064840 | 70 | 159 | 0.0 | 0.0 | 0.00 | 0.00 | 0.00 | 92 | 1040.8 |
| 20260906064337 | 70 | 144 | 0.0 | 0.0 | 0.00 | 0.00 | 0.00 | 92 | 1040.6 |
| 20260906063836 | 70 | 148 | 0.0 | 0.0 | 0.00 | 0.00 | 0.00 | 92 | 1040.8 |
| 20260906063332 | 70 | 144 | 0.0 | 0.0 | 0.00 | 0.00 | 0.00 | 92 | 1040.8 |
| 20260906062827 | 70 | 141 | 0.0 | 0.0 | 0.00 | 0.00 | 0.00 | 92 | 1040.9 |
| 20260906062320 | 70 | 144 | 0.0 | 0.0 | 0.00 | 0.00 | 0.00 | 92 | 1041.2 |
| 20260906061816 | 71 | 144 | 0.0 | 0.0 | 0.00 | 0.00 | 0.00 | 92 | 1041.1 |
| 20260906061312 | 71 | 142 | 0.0 | 0.0 | 0.00 | 0.00 | 0.00 | 91 | 1041.1 |
| 20260906060807 | 71 | 139 | 0.0 | 0.0 | 0.00 | 0.00 | 0.00 | 91 | 1041.2 |
| 20260906060305 | 70 | 130 | 0.0 | 0.0 | 0.00 | 0.00 | 0.00 | 91 | 1041.2 |
| 20260906055800 | 70 | 141 | 0.0 | 0.0 | 0.00 | 0.00 | 0.00 | 91 | 1041.1 |
| 20260906055255 | 70 | 142 | 0.0 | 0.0 | 0.00 | 0.00 | 0.00 | 91 | 1041.1 |
| 20260906054750 | 71 | 146 | 0.0 | 0.0 | 0.00 | 0.00 | 0.00 | 91 | 1041.2 |
| 20260906054246 | 71 | 150 | 0.0 | 0.0 | 0.00 | 0.00 | 0.00 | 90 | 1041.6 |
| 20260906053743 | 71 | 147 | 0.0 | 0.0 | 0.00 | 0.00 | 0.00 | 90 | 1041.7 |
| 20260906053238 | 71 | 147 | 0.0 | 0.0 | 0.00 | 0.00 | 0.00 | 90 | 1041.9 |
| 20260906052733 | 71 | 147 | 0.0 | 0.0 | 0.00 | 0.00 | 0.00 | 90 | 1042.0 |
| 20260906052229 | 71 | 141 | 0.0 | 0.0 | 0.00 | 0.00 | 0.00 | 89 | 1041.9 |
| 20260906051726 | 71 | 148 | 0.0 | 0.0 | 0.00 | 0.00 | 0.00 | 89 | 1042.0 |
| 20260906051225 | 71 | 145 | 0.0 | 0.0 | 0.00 | 0.00 | 0.00 | 89 | 1041.7 |
| 20260906050720 | 72 | 153 | 0.0 | 0.0 | 0.00 | 0.00 | 0.00 | 88 | 1041.7 |
| 20260906050216 | 72 | 150 | 0.0 | 0.0 | 0.00 | 0.00 | 0.00 | 88 | 1041.7 |
| 20260906045714 | 72 | 138 | 0.0 | 0.0 | 0.00 | 0.00 | 0.00 | 88 | 1041.6 |
| 20260906045209 | 72 | 155 | 0.0 | 0.0 | 0.00 | 0.00 | 0.00 | 88 | 1041.7 |
| 20260906044705 | 72 | 151 | 0.0 | 0.0 | 0.00 | 0.00 | 0.00 | 87 | 1041.6 |
| 20260906044200 | 72 | 146 | 0.0 | 0.0 | 0.00 | 0.00 | 0.00 | 87 | 1041.3 |
| 20260906043656 | 72 | 148 | 0.0 | 0.0 | 0.00 | 0.00 | 0.00 | 87 | 1041.4 |
| 20260906043152 | 72 | 151 | 0.0 | 0.0 | 0.00 | 0.00 | 0.00 | 87 | 1041.2 |
| 20260906042651 | 72 | 145 | 0.0 | 0.0 | 0.00 | 0.00 | 0.00 | 87 | 1041.2 |
| 20260906042145 | 72 | 149 | 0.0 | 0.0 | 0.00 | 0.00 | 0.00 | 87 | 1041.1 |
| 20260906041641 | 72 | 141 | 0.0 | 0.0 | 0.00 | 0.00 | 0.00 | 87 | 1041.2 |
| 20260906041136 | 72 | 135 | 0.0 | 0.0 | 0.00 | 0.00 | 0.00 | 87 | 1041.2 |
| 20260906040631 | 72 | 141 | 0.0 | 0.0 | 0.00 | 0.00 | 0.00 | 87 | 1041.3 |
| 20260906040126 | 72 | 138 | 0.0 | 0.0 | 0.00 | 0.00 | 0.00 | 87 | 1041.3 |
| 20260906035621 | 72 | 151 | 0.0 | 0.0 | 0.00 | 0.00 | 0.00 | 87 | 1041.2 |
| 20260906035118 | 72 | 138 | 0.0 | 0.0 | 0.00 | 0.00 | 0.00 | 86 | 1041.2 |
| 20260906034617 | 72 | 153 | 0.9 | 0.9 | 0.00 | 0.00 | 0.00 | 86 | 1041.2 |
| 20260906034112 | 72 | 136 | 0.9 | 0.9 | 0.00 | 0.00 | 0.00 | 86 | 1041.4 |
| 20260906033608 | 72 | 177 | 0.9 | 0.9 | 0.00 | 0.00 | 0.00 | 86 | 1041.3 |
| 20260906033103 | 72 | 165 | 0.9 | 0.9 | 0.00 | 0.00 | 0.00 | 85 | 1041.6 |
| 20260906032600 | 72 | 153 | 0.0 | 0.0 | 0.00 | 0.00 | 0.00 | 85 | 1041.4 |
| 20260906032059 | 72 | 140 | 0.0 | 0.0 | 0.00 | 0.00 | 0.00 | 85 | 1041.3 |
| 20260906031555 | 72 | 159 | 0.0 | 0.0 | 0.00 | 0.00 | 0.00 | 85 | 1041.4 |
| 20260906031050 | 72 | 144 | 0.0 | 0.0 | 0.00 | 0.00 | 0.00 | 84 | 1041.9 |
| 20260906030549 | 72 | 150 | 0.0 | 0.0 | 0.00 | 0.00 | 0.00 | 84 | 1041.9 |
| 20260906030044 | 73 | 150 | 0.0 | 0.0 | 0.00 | 0.00 | 0.00 | 84 | 1041.8 |
| 20260906025544 | 73 | 145 | 0.0 | 0.0 | 0.00 | 0.00 | 0.00 | 84 | 1041.9 |
| 20260906025042 | 73 | 150 | 0.0 | 0.0 | 0.00 | 0.00 | 0.00 | 83 | 1041.8 |
| 20260906024538 | 73 | 149 | 0.0 | 0.0 | 0.00 | 0.00 | 0.00 | 83 | 1042.1 |
| 20260906024037 | 73 | 143 | 0.0 | 0.0 | 0.00 | 0.00 | 0.00 | 83 | 1042.0 |
| 20260906023534 | 73 | 146 | 0.0 | 0.0 | 0.00 | 0.00 | 0.00 | 83 | 1042.2 |
| 20260906023028 | 73 | 153 | 0.0 | 0.0 | 0.00 | 0.00 | 0.00 | 83 | 1042.1 |
| 20260906022523 | 73 | 148 | 0.0 | 0.0 | 0.00 | 0.00 | 0.00 | 83 | 1042.0 |
| 20260906022019 | 73 | 131 | 0.0 | 0.0 | 0.00 | 0.00 | 0.00 | 83 | 1041.8 |
| 20260906021514 | 73 | 148 | 0.0 | 0.0 | 0.00 | 0.00 | 0.00 | 82 | 1042.0 |
| 20260906021008 | 73 | 140 | 0.0 | 0.0 | 0.00 | 0.00 | 0.00 | 82 | 1042.1 |
| 20260906020508 | 73 | 147 | 0.0 | 0.0 | 0.00 | 0.00 | 0.00 | 82 | 1041.9 |
| 20260906020007 | 73 | 142 | 0.0 | 0.0 | 0.00 | 0.00 | 0.00 | 83 | 1041.8 |
| 20260906015507 | 73 | 148 | 0.0 | 0.0 | 0.00 | 0.00 | 0.00 | 83 | 1041.7 |
| 20260906015006 | 73 | 176 | 0.0 | 0.0 | 0.00 | 0.00 | 0.00 | 82 | 1041.9 |
| 20260905232429 | 86 | 38 | 1.7 | 2.6 | 0.00 | 0.00 | 0.00 | 59 | 1039.2 |
| 20260905231924 | 86 | 38 | 1.7 | 2.6 | 0.00 | 0.00 | 0.00 | 59 | 1039.2 |
| 20260905231420 | 88 | 31 | 4.3 | 5.2 | 0.00 | 0.00 | 0.00 | 56 | 1039.9 |
| 20260905230916 | 90 | 53 | 1.7 | 2.6 | 0.00 | 0.00 | 0.00 | 54 | 1040.0 |
| 20260905230414 | 91 | 139 | 0.9 | 1.7 | 0.00 | 0.00 | 0.00 | 54 | 1039.9 |
| 20260905225913 | 93 | 133 | 0.0 | 0.0 | 0.00 | 0.00 | 0.00 | 56 | 1039.1 |
| 20260905225409 | 94 | 145 | 0.0 | 0.0 | 0.00 | 0.00 | 0.00 | 51 | 1039.3 |
| 20260905224903 | 95 | 154 | 0.0 | 0.0 | 0.00 | 0.00 | 0.00 | 51 | 1039.2 |
| 20260905224359 | 95 | 149 | 0.0 | 0.0 | 0.00 | 0.00 | 0.00 | 51 | 1039.1 |
| 20260905223853 | 94 | 149 | 0.0 | 0.0 | 0.00 | 0.00 | 0.00 | 49 | 1039.1 |
| 20260905223351 | 94 | 167 | 0.9 | 0.9 | 0.00 | 0.00 | 0.00 | 48 | 1039.2 |
| 20260905222846 | 94 | 167 | 0.9 | 0.9 | 0.00 | 0.00 | 0.00 | 47 | 1039.3 |
| 20260905222344 | 95 | 198 | 1.7 | 1.7 | 0.00 | 0.00 | 0.00 | 49 | 1039.2 |
| 20260905221841 | 94 | 167 | 0.9 | 0.9 | 0.00 | 0.00 | 0.00 | 47 | 1039.2 |
| 20260905221337 | 94 | 161 | 0.9 | 0.9 | 0.00 | 0.00 | 0.00 | 46 | 1039.2 |
| 20260905220833 | 95 | 204 | 2.6 | 2.6 | 0.00 | 0.00 | 0.00 | 47 | 1039.0 |
| 20260905220329 | 95 | 196 | 1.7 | 1.7 | 0.00 | 0.00 | 0.00 | 45 | 1039.2 |
| 20260905215828 | 96 | 175 | 0.0 | 0.9 | 0.00 | 0.00 | 0.00 | 45 | 1039.2 |
| 20260905215323 | 96 | 146 | 0.0 | 0.0 | 0.00 | 0.00 | 0.00 | 45 | 1039.1 |
| 20260905214820 | 96 | 117 | 1.7 | 1.7 | 0.00 | 0.00 | 0.00 | 44 | 1039.1 |
| 20260905214315 | 96 | 216 | 0.9 | 1.7 | 0.00 | 0.00 | 0.00 | 45 | 1039.1 |
| 20260905213810 | 96 | 163 | 0.0 | 0.9 | 0.00 | 0.00 | 0.00 | 45 | 1039.0 |
| 20260905213306 | 97 | 153 | 0.9 | 0.9 | 0.00 | 0.00 | 0.00 | 44 | 1039.1 |
| 20260905212801 | 97 | 149 | 0.9 | 0.9 | 0.00 | 0.00 | 0.00 | 44 | 1039.1 |
| 20260905212301 | 97 | 205 | 1.7 | 1.7 | 0.00 | 0.00 | 0.00 | 43 | 1038.9 |
| 20260905211755 | 98 | 153 | 0.0 | 0.0 | 0.00 | 0.00 | 0.00 | 44 | 1039.0 |
| 20260905211250 | 98 | 153 | 0.9 | 0.9 | 0.00 | 0.00 | 0.00 | 43 | 1039.2 |
| 20260905210747 | 98 | 122 | 0.9 | 0.9 | 0.00 | 0.00 | 0.00 | 44 | 1039.2 |
| 20260905210247 | 98 | 144 | 0.0 | 0.0 | 0.00 | 0.00 | 0.00 | 42 | 1039.3 |
| 20260905205745 | 99 | 145 | 0.0 | 0.0 | 0.00 | 0.00 | 0.00 | 43 | 1039.5 |
| 20260905205241 | 99 | 157 | 0.9 | 0.9 | 0.00 | 0.00 | 0.00 | 42 | 1039.5 |
| 20260905204740 | 99 | 118 | 0.9 | 0.9 | 0.00 | 0.00 | 0.00 | 43 | 1039.8 |
| 20260905204236 | 99 | 151 | 0.0 | 0.0 | 0.00 | 0.00 | 0.00 | 44 | 1039.7 |
| 20260905203735 | 98 | 158 | 0.9 | 1.7 | 0.00 | 0.00 | 0.00 | 42 | 1039.6 |
| 20260905203230 | 98 | 178 | 0.9 | 1.7 | 0.00 | 0.00 | 0.00 | 45 | 1039.5 |
| 20260905202725 | 97 | 127 | 0.9 | 0.9 | 0.00 | 0.00 | 0.00 | 44 | 1039.5 |
| 20260905202221 | 98 | 147 | 0.0 | 0.0 | 0.00 | 0.00 | 0.00 | 44 | 1039.7 |
| 20260905201717 | 98 | 200 | 2.6 | 2.6 | 0.00 | 0.00 | 0.00 | 45 | 1040.1 |
| 20260905201217 | 98 | 151 | 0.9 | 0.9 | 0.00 | 0.00 | 0.00 | 46 | 1040.0 |
| 20260905200712 | 98 | 152 | 0.9 | 0.9 | 0.00 | 0.00 | 0.00 | 45 | 1040.0 |
| 20260905200208 | 99 | 146 | 0.9 | 1.7 | 0.00 | 0.00 | 0.00 | 46 | 1040.0 |
| 20260905195706 | 98 | 135 | 0.9 | 1.7 | 0.00 | 0.00 | 0.00 | 45 | 1040.2 |
| 20260905195201 | 98 | 151 | 0.9 | 1.7 | 0.00 | 0.00 | 0.00 | 45 | 1040.3 |
| 20260905194656 | 99 | 228 | 0.0 | 0.9 | 0.00 | 0.00 | 0.00 | 44 | 1040.6 |
| 20260905194155 | 99 | 229 | 1.7 | 1.7 | 0.00 | 0.00 | 0.00 | 44 | 1040.6 |
| 20260905193650 | 97 | 192 | 2.6 | 2.6 | 0.00 | 0.00 | 0.00 | 46 | 1040.6 |
| 20260905193145 | 97 | 144 | 0.9 | 1.7 | 0.00 | 0.00 | 0.00 | 48 | 1040.5 |
| 20260905192640 | 96 | 196 | 0.9 | 0.9 | 0.00 | 0.00 | 0.00 | 48 | 1040.4 |
| 20260905192137 | 96 | 94 | 1.7 | 1.7 | 0.00 | 0.00 | 0.00 | 49 | 1040.4 |
| 20260905191636 | 98 | 305 | 2.6 | 2.6 | 0.00 | 0.00 | 0.00 | 47 | 1040.6 |
| 20260905191134 | 99 | 148 | 0.0 | 0.9 | 0.00 | 0.00 | 0.00 | 47 | 1040.6 |
| 20260905190633 | 98 | 132 | 0.0 | 0.0 | 0.00 | 0.00 | 0.00 | 48 | 1040.4 |
| 20260905190132 | 98 | 154 | 0.0 | 0.0 | 0.00 | 0.00 | 0.00 | 46 | 1040.7 |
| 20260905185631 | 97 | 165 | 0.9 | 1.7 | 0.00 | 0.00 | 0.00 | 46 | 1040.4 |
| 20260905185126 | 96 | 269 | 0.9 | 0.9 | 0.00 | 0.00 | 0.00 | 46 | 1040.6 |
| 20260905184620 | 96 | 94 | 0.9 | 5.2 | 0.00 | 0.00 | 0.00 | 47 | 1041.0 |
| 20260905184119 | 96 | 150 | 0.0 | 0.9 | 0.00 | 0.00 | 0.00 | 47 | 1041.0 |
| 20260905183618 | 95 | 131 | 1.7 | 2.6 | 0.00 | 0.00 | 0.00 | 47 | 1040.9 |
| 20260905183114 | 98 | 151 | 0.9 | 0.9 | 0.00 | 0.00 | 0.00 | 46 | 1041.3 |
| 20260905182614 | 97 | 138 | 0.0 | 0.0 | 0.00 | 0.00 | 0.00 | 48 | 1041.3 |
| 20260905182113 | 99 | 173 | 0.0 | 0.0 | 0.00 | 0.00 | 0.00 | 44 | 1041.2 |
| 20260905181608 | 97 | 154 | 0.0 | 0.0 | 0.00 | 0.00 | 0.00 | 47 | 1041.2 |
| 20260905181107 | 98 | 152 | 0.9 | 1.7 | 0.00 | 0.00 | 0.00 | 45 | 1041.6 |
| 20260905180602 | 98 | 172 | 0.9 | 0.9 | 0.00 | 0.00 | 0.00 | 44 | 1041.4 |
| 20260905180058 | 97 | 160 | 0.0 | 0.0 | 0.00 | 0.00 | 0.00 | 45 | 1041.4 |
| 20260905175556 | 97 | 165 | 0.9 | 1.7 | 0.00 | 0.00 | 0.00 | 42 | 1041.4 |
| 20260905175052 | 96 | 150 | 0.0 | 0.9 | 0.00 | 0.00 | 0.00 | 50 | 1041.7 |
| 20260905174548 | 96 | 147 | 0.0 | 0.0 | 0.00 | 0.00 | 0.00 | 49 | 1041.7 |
| 20260905174043 | 96 | 169 | 0.0 | 0.9 | 0.00 | 0.00 | 0.00 | 49 | 1041.6 |
| 20260905173540 | 95 | 146 | 0.0 | 0.0 | 0.00 | 0.00 | 0.00 | 51 | 1041.8 |
| 20260905173035 | 95 | 129 | 0.9 | 0.9 | 0.00 | 0.00 | 0.00 | 54 | 1042.1 |
| 20260905172533 | 95 | 169 | 1.7 | 1.7 | 0.00 | 0.00 | 0.00 | 52 | 1041.9 |
| 20260905172029 | 94 | 142 | 0.0 | 0.9 | 0.00 | 0.00 | 0.00 | 52 | 1042.1 |
| 20260905171525 | 95 | 77 | 1.7 | 2.6 | 0.00 | 0.00 | 0.00 | 51 | 1042.2 |
| 20260905171021 | 94 | 120 | 0.9 | 0.9 | 0.00 | 0.00 | 0.00 | 54 | 1042.0 |
| 20260905170518 | 94 | 195 | 0.9 | 0.9 | 0.00 | 0.00 | 0.00 | 53 | 1042.0 |
| 20260905170012 | 94 | 149 | 0.0 | 0.0 | 0.00 | 0.00 | 0.00 | 53 | 1042.2 |
| 20260905165507 | 94 | 174 | 0.9 | 0.9 | 0.00 | 0.00 | 0.00 | 55 | 1042.2 |
| 20260905165002 | 94 | 170 | 0.9 | 1.7 | 0.00 | 0.00 | 0.00 | 54 | 1042.3 |
| 20260905164502 | 94 | 165 | 0.0 | 0.9 | 0.00 | 0.00 | 0.00 | 55 | 1042.5 |
| 20260905163956 | 94 | 117 | 1.7 | 1.7 | 0.00 | 0.00 | 0.00 | 54 | 1042.5 |
| 20260905163453 | 95 | 143 | 0.0 | 0.9 | 0.00 | 0.00 | 0.00 | 54 | 1042.5 |
| 20260905162949 | 93 | 147 | 0.0 | 0.0 | 0.00 | 0.00 | 0.00 | 54 | 1042.7 |
| 20260905162444 | 93 | 182 | 1.7 | 1.7 | 0.00 | 0.00 | 0.00 | 56 | 1042.6 |
| 20260905161939 | 93 | 166 | 0.9 | 0.9 | 0.00 | 0.00 | 0.00 | 54 | 1042.7 |
| 20260905161438 | 93 | 131 | 0.9 | 1.7 | 0.00 | 0.00 | 0.00 | 55 | 1042.8 |
| 20260905160936 | 93 | 124 | 0.9 | 1.7 | 0.00 | 0.00 | 0.00 | 55 | 1042.9 |
| 20260905160430 | 94 | 151 | 2.6 | 2.6 | 0.00 | 0.00 | 0.00 | 53 | 1043.0 |
| 20260905155929 | 94 | 145 | 0.0 | 0.9 | 0.00 | 0.00 | 0.00 | 54 | 1042.9 |
| 20260905155425 | 93 | 135 | 1.7 | 1.7 | 0.00 | 0.00 | 0.00 | 55 | 1043.2 |
| 20260905154923 | 92 | 133 | 0.9 | 0.9 | 0.00 | 0.00 | 0.00 | 57 | 1043.0 |
| 20260905154419 | 92 | 145 | 0.0 | 0.0 | 0.00 | 0.00 | 0.00 | 57 | 1043.2 |
| 20260905153914 | 93 | 164 | 0.0 | 0.0 | 0.00 | 0.00 | 0.00 | 59 | 1043.1 |
| 20260905153410 | 93 | 146 | 0.0 | 0.9 | 0.00 | 0.00 | 0.00 | 60 | 1043.3 |
| 20260905152910 | 91 | 141 | 0.0 | 0.0 | 0.00 | 0.00 | 0.00 | 63 | 1043.1 |
| 20260905152409 | 91 | 201 | 2.6 | 4.3 | 0.00 | 0.00 | 0.00 | 63 | 1043.1 |
| 20260905151905 | 93 | 179 | 0.9 | 0.9 | 0.00 | 0.00 | 0.00 | 61 | 1043.2 |
| 20260905151401 | 91 | 174 | 0.0 | 0.9 | 0.00 | 0.00 | 0.00 | 61 | 1043.3 |
| 20260905150900 | 91 | 154 | 0.0 | 0.0 | 0.00 | 0.00 | 0.00 | 61 | 1043.5 |
| 20260905150354 | 91 | 213 | 2.6 | 2.6 | 0.00 | 0.00 | 0.00 | 62 | 1043.2 |
| 20260905145852 | 89 | 135 | 0.0 | 0.0 | 0.00 | 0.00 | 0.00 | 61 | 1043.3 |
| 20260905145346 | 89 | 131 | 0.9 | 0.9 | 0.00 | 0.00 | 0.00 | 64 | 1043.3 |
| 20260905144845 | 89 | 182 | 0.9 | 0.9 | 0.00 | 0.00 | 0.00 | 64 | 1043.3 |
| 20260905144341 | 88 | 144 | 0.0 | 0.0 | 0.00 | 0.00 | 0.00 | 67 | 1043.4 |
| 20260905143839 | 88 | 142 | 0.0 | 0.9 | 0.00 | 0.00 | 0.00 | 68 | 1043.4 |
| 20260905143334 | 88 | 161 | 0.9 | 0.9 | 0.00 | 0.00 | 0.00 | 66 | 1043.3 |
| 20260905142834 | 87 | 142 | 0.0 | 0.0 | 0.00 | 0.00 | 0.00 | 69 | 1043.6 |
| 20260905142332 | 87 | 147 | 0.0 | 0.0 | 0.00 | 0.00 | 0.00 | 68 | 1043.6 |
| 20260905141829 | 86 | 154 | 0.0 | 0.0 | 0.00 | 0.00 | 0.00 | 72 | 1043.5 |
| 20260905141324 | 86 | 146 | 0.0 | 0.0 | 0.00 | 0.00 | 0.00 | 73 | 1043.4 |
| 20260905140820 | 86 | 143 | 0.0 | 0.0 | 0.00 | 0.00 | 0.00 | 73 | 1043.5 |
| 20260905140320 | 84 | 142 | 0.0 | 0.0 | 0.00 | 0.00 | 0.00 | 73 | 1043.6 |
| 20260905135818 | 84 | 176 | 0.9 | 0.9 | 0.00 | 0.00 | 0.00 | 73 | 1043.7 |
| 20260905135314 | 84 | 152 | 0.0 | 0.0 | 0.00 | 0.00 | 0.00 | 76 | 1043.6 |
| 20260905134810 | 84 | 142 | 0.0 | 0.0 | 0.00 | 0.00 | 0.00 | 76 | 1043.7 |
| 20260905134309 | 83 | 141 | 0.0 | 0.0 | 0.00 | 0.00 | 0.00 | 77 | 1043.7 |
| 20260905133809 | 82 | 142 | 0.0 | 0.0 | 0.00 | 0.00 | 0.00 | 79 | 1043.5 |
| 20260905133304 | 81 | 133 | 0.0 | 0.0 | 0.00 | 0.00 | 0.00 | 80 | 1043.8 |
| 20260905132803 | 80 | 143 | 0.0 | 0.9 | 0.00 | 0.00 | 0.00 | 81 | 1044.0 |
| 20260905132259 | 80 | 131 | 0.9 | 0.9 | 0.00 | 0.00 | 0.00 | 83 | 1044.0 |
| 20260905131753 | 80 | 141 | 0.0 | 0.0 | 0.00 | 0.00 | 0.00 | 83 | 1043.8 |
| 20260905131249 | 79 | 135 | 0.0 | 0.0 | 0.00 | 0.00 | 0.00 | 85 | 1043.9 |
| 20260905130744 | 78 | 105 | 0.0 | 0.0 | 0.00 | 0.00 | 0.00 | 86 | 1043.9 |
| 20260905130243 | 77 | 138 | 0.0 | 0.0 | 0.00 | 0.00 | 0.00 | 89 | 1044.0 |
| 20260905125738 | 77 | 139 | 0.0 | 0.0 | 0.00 | 0.00 | 0.00 | 89 | 1043.7 |
| 20260905125233 | 76 | 127 | 0.0 | 0.0 | 0.00 | 0.00 | 0.00 | 91 | 1043.6 |
| 20260905124730 | 76 | 147 | 0.0 | 0.0 | 0.00 | 0.00 | 0.00 | 92 | 1043.7 |
| 20260905124225 | 75 | 144 | 0.0 | 0.0 | 0.00 | 0.00 | 0.00 | 92 | 1044.0 |
| 20260905123720 | 75 | 146 | 0.0 | 0.0 | 0.00 | 0.00 | 0.00 | 92 | 1043.8 |
| 20260905123217 | 74 | 135 | 0.0 | 0.0 | 0.00 | 0.00 | 0.00 | 92 | 1043.5 |
| 20260905122716 | 73 | 143 | 0.0 | 0.0 | 0.00 | 0.00 | 0.00 | 92 | 1044.0 |
| 20260905122211 | 72 | 143 | 0.0 | 0.0 | 0.00 | 0.00 | 0.00 | 92 | 1043.9 |
| 20260905121706 | 72 | 144 | 0.0 | 0.0 | 0.00 | 0.00 | 0.00 | 92 | 1043.9 |
| 20260905121202 | 72 | 144 | 0.0 | 0.0 | 0.00 | 0.00 | 0.00 | 92 | 1043.7 |